Home > Time Zones > World Clock > Weather > Oman > Seeb > Past weeks

Flag for Oman Weather past 2 weeks in Seeb, Oman

Now
61 °F

Clear.


Feels Like: 61 °F
Forecast: 71 / 81 °F
Wind: 2 mph from West

Location: International Airport

Current Time: Mar 2, 2015 at 5:09:12 AM

Latest Report: Mar 2, 2015 at 3:50 AM


Visibility: 10 mi

Pressure: 29.86 "Hg

Humidity: 59%

Dew point: 46 °F

Location of SeebLocation

Historic Weather in Seeb — Graph

°F

Seeb temperature yesterday

Maximum temperature yesterday: 75 °F (at 1:50 PM)
Minimum temperature yesterday: 61 °F (at 2:50 AM)
Average temperature yesterday: 69 °F

Past Weeks' High & Low Weather Summary

 TemperatureHumidityPressure
High102 °F (Feb 20, 1:50 PM)78% (Feb 16, 9:50 PM)30.09 "Hg (Feb 16, 9:50 PM)
Low61 °F (Mar 1, 2:50 AM)6% (Feb 20, 11:50 AM)29.65 "Hg (Feb 20, 2:50 PM)
Average76 °F43%29.90 "Hg
* Reported Feb 15 3:50 AM — Mar 2 3:50 AM, Seeb, Weather by CustomWeather, © 2015

Note: Actual official high and low records may vary slightly from our data, if they occured in-between our weather recording intervals... More about our weather records

Advertising

Seeb weather history for previous 24 hours

 ConditionsComfort  
Time TempWeatherWind HumidityBarometerVisibility
3:50 AM
Mon, Mar 2
61 °FClear.2 mph59%29.86 "Hg10 mi
2:50 AM63 °FClear.2 mph56%29.86 "Hg10 mi
1:50 AM63 °FClear.3 mph59%29.86 "Hg10 mi
12:50 AM64 °FClear.3 mph56%29.86 "Hg10 mi
11:50 PM
Sun, Mar 1
68 °FClear.3 mph49%29.89 "Hg10 mi
10:50 PM68 °FClear.5 mph49%29.89 "Hg10 mi
9:50 PM68 °FClear.3 mph49%29.92 "Hg10 mi
8:50 PM70 °FClear.3 mph50%29.92 "Hg10 mi
7:50 PM72 °FClear.6 mph47%29.89 "Hg10 mi
6:50 PM70 °FPassing clouds.3 mph53%29.89 "HgN/A
5:50 PM72 °FPassing clouds.6 mph47%29.89 "HgN/A
4:50 PM73 °FClear.7 mph44%29.89 "Hg6 mi
3:50 PM73 °FPassing clouds.9 mph44%29.89 "HgN/A
2:50 PM73 °FPassing clouds.8 mph41%29.89 "HgN/A
1:50 PM75 °FPassing clouds.8 mph41%29.92 "HgN/A
12:50 PM73 °FPassing clouds.10 mph41%29.95 "HgN/A
11:50 AM73 °FPassing clouds.12 mph38%29.98 "HgN/A
10:50 AM73 °FPassing clouds.9 mph36%29.98 "HgN/A
9:50 AM72 °FPassing clouds.8 mph38%30.01 "HgN/A
8:50 AM70 °FPassing clouds.10 mph43%29.98 "HgN/A
7:50 AM68 °FPassing clouds.9 mph43%29.98 "HgN/A
6:50 AM63 °FScattered clouds.10 mph45%29.95 "HgN/A
5:50 AM63 °FClear.7 mph45%29.95 "Hg10 mi
Weather by CustomWeather, © 2015

See weather overviewHow to use our weather pages